Regional Weather Roundup
Issued by NWS

Home | Current Version | Previous Version | Text Only | Print | Product List | Glossary Off
Versions: 1 2 3 4 5 6 7 8 9 10 11 12 13 14 15 16 17 18 19 20 21 22 23 24 25 26 27 28 29 30 31 32 33 34 35 36 37 38 39 40 41 42 43 44 45 46 47 48 49 50

000
ASUS44 KMEG 251300
RWRTN
TENNESSEE HOURLY STATE WEATHER ROUNDUP
NATIONAL WEATHER SERVICE MEMPHIS TN
800 AM CDT MON MAY 25 2015

TNZ002-004-019-021-049-052-054-088>092-251400-
WEST TENNESSEE

CITY           SKY/WX    TMP DP  RH WIND       PRES   REMARKS
MEMPHIS INTL   CLOUDY    71  67  87 S6        30.06R
NWS MEMPHIS      N/A     69 N/A N/A MISG        N/A
JACKSON        CLOUDY    69  66  90 S5        30.09S
DYERSBURG      CLOUDY    68  55  64 SE5       30.08S
PARIS          PTSUNNY   66  66 100 S8        30.11S
LEXINGTON      PTSUNNY   68  66  94 SE3       30.11F
$$

TNZ008-025-027-028-033-062-065-066-251400-
NORTH MIDDLE TENNESSEE

CITY           SKY/WX    TMP DP  RH WIND       PRES   REMARKS
NASHVILLE      CLOUDY    67  64  90 S5        30.18R
CLARKSVILLE    LGT RAIN  68  66  93 S7        30.14R FOG
COOKEVILLE     MOSUNNY   72  61  68 S10       30.21R
CROSSVILLE     MOSUNNY   68  58  70 S13G25    30.27R
$$

TNZ061-075-076-078-094-096-097-251400-
SOUTH MIDDLE TENNESSEE

CITY           SKY/WX    TMP DP  RH WIND       PRES   REMARKS
FAYETTEVILLE   SUNNY    N/A N/A N/A MISG      30.18S
TULLAHOMA      MOSUNNY   70  57  64 SE8       30.21R
WINCHESTER     MOSUNNY   72  61  68 SE10      30.21S
SHELBYVILLE    MOSUNNY   72  63  73 S9        30.19R
$$

TNZ017-018-042-046-047-251400-
NORTHEAST TENNESSEE

CITY           SKY/WX    TMP DP  RH WIND       PRES   REMARKS
TRI CITIES     MOSUNNY   70  56  61 SE6       30.29R
$$

TNZ012-013-036-069-073-074-251400-
CENTRAL EAST TENNESSEE

CITY           SKY/WX    TMP DP  RH WIND       PRES   REMARKS
KNOXVILLE      MOSUNNY   71  59  65 N3        30.25R
OAK RIDGE      SUNNY     72  58  61 VRB7      30.27R
GATLINBURG     SUNNY     66  55  68 CALM      30.25R
$$

TNZ083-085-099-251400-
SOUTHEAST TENNESSEE

CITY           SKY/WX    TMP DP  RH WIND       PRES   REMARKS
CHATTANOOGA    CLOUDY    70  61  73 VRB7      30.26R
$$

SKY/WX REPORTED AS FAIR MEANS FEW OR NO CLOUDS BELOW
12 THOUSAND FEET.



USA.gov is the U.S. government's official web portal to all federal, state and local government web resources and services.